Location: Omaha
(41.2590°N, 95.9380°W)
Time: 19:32:17
(UTC-05:00)

ISS - Pass Details

Date: 15 October 2017
Orbit: 400 x 408 km, 51.6° (Epoch: 24 October)

Event Time Altitude Azimuth Distance (km) Brightness Sun altitude
Rises 20:43:57 0° 285° (WNW) 2,324 1.5 -23.6°
Reaches altitude 10° 20:47:36 10° 243° (WSW) 1,460 -0.3 -24.3°
Maximum altitude 20:48:14 10° 231° (SW) 1,433 -0.6 -24.4°
Drops below altitude 10° 20:48:53 10° 220° (SW) 1,458 -0.7 -24.5°
Enters shadow 20:49:32 - 209° (SSW) 1,535 -0.7 -24.6°
